Theta_e
307 303 302 301 302 305 305 305 306 307 308 306 305 307 310 310 308 312 316 313 312 331 335 339 335 338 348 350 353 355 363 364 357 356 353 353 355 355 353 355 353 352 349 345 343
303 301 301 301 301 301 303 306 307 305 302 304 308 309 312 313 313 316 318 318 313 314 328 337 336 331 345 351 353 360 361 362 352 348 351 353 355 357 357 357 355 350 347 343 342
301 301 301 301 301 301 302 302 304 304 304 305 311 315 313 313 318 320 321 321 319 315 318 328 328 325 327 333 352 354 362 355 352 347 347 348 347 352 358 360 353 350 346 342 343
301 301 301 301 301 301 301 302 305 307 307 307 310 319 314 315 323 321 319 321 319 314 317 319 317 320 324 330 334 351 350 352 350 347 347 347 346 358 356 357 350 345 343 343 348
301 301 301 301 301 301 302 304 306 307 308 309 309 319 315 318 315 321 322 324 322 323 321 319 317 316 324 326 329 340 346 347 347 346 345 344 348 350 354 353 348 343 343 345 347
301 301 301 302 302 301 303 306 308 309 310 310 313 317 315 318 314 319 319 325 320 323 323 319 316 317 323 326 330 339 340 344 345 347 347 347 347 356 357 352 350 346 344 345 348
302 302 302 302 302 302 304 308 310 310 311 311 316 318 318 314 314 319 321 325 322 319 320 320 317 320 321 327 328 330 339 341 342 348 350 346 350 363 356 353 352 350 348 349 349
301 302 302 302 302 302 305 309 311 311 314 311 320 318 318 313 315 317 317 318 326 319 318 319 318 317 320 320 322 332 333 337 337 348 348 347 354 359 355 355 355 353 351 350 350
301 302 302 303 303 303 307 312 309 312 322 318 319 319 321 318 322 322 319 324 324 323 319 318 316 315 318 320 320 325 332 335 337 348 350 351 358 359 356 355 355 353 352 351 350
302 303 303 303 303 303 310 310 308 313 322 320 322 321 317 318 313 314 320 323 322 318 318 317 315 314 316 317 323 326 333 334 336 346 350 353 354 357 356 357 357 354 353 351 351
304 304 304 306 304 305 310 308 305 303 307 305 306 320 313 311 309 315 315 323 320 320 321 319 318 318 318 319 322 327 330 334 336 337 349 353 353 355 357 355 357 356 356 353 351
303 303 303 306 305 308 309 305 306 307 304 306 307 307 307 308 309 310 315 323 321 322 321 323 323 320 321 322 322 325 329 333 335 336 336 350 353 352 354 353 354 354 351 353 352
301 301 303 306 305 307 309 309 309 308 303 306 308 308 308 308 309 310 313 317 323 320 322 324 328 324 325 325 326 326 327 331 334 334 333 351 355 352 350 347 348 352 351 350 349
300 301 302 306 306 308 309 308 308 307 303 309 311 311 310 309 311 313 312 316 321 322 319 325 326 328 328 329 327 327 327 330 333 333 336 335 362 354 352 349 352 351 352 350 348
300 301 304 306 308 308 308 309 309 306 307 312 309 310 307 308 310 313 313 313 318 320 317 321 329 329 331 331 329 328 327 329 331 332 332 334 347 354 352 352 352 352 351 347 345
300 301 307 308 307 308 308 309 307 306 311 310 309 307 307 307 308 312 311 312 315 319 319 320 321 330 331 331 331 328 328 329 330 327 332 333 332 346 356 352 350 349 349 347 340
300 301 310 308 307 309 311 304 304 307 308 308 306 306 305 306 307 310 309 311 313 321 321 324 323 322 331 332 330 331 327 331 330 330 331 329 329 331 348 349 348 347 349 346 341
301 304 310 311 310 312 310 303 310 309 306 306 306 306 307 308 308 309 309 310 316 319 322 322 324 323 323 331 333 330 330 328 332 329 329 324 328 328 341 344 346 345 346 345 343
302 307 310 312 312 311 301 306 308 308 306 306 306 306 307 308 308 310 308 312 314 317 319 320 322 325 326 325 331 331 331 323 320 320 322 323 324 325 326 341 346 347 346 345 343
304 306 309 310 311 309 303 308 308 308 306 307 307 307 306 306 310 309 311 312 312 315 314 318 322 322 325 327 328 330 323 325 317 325 324 322 323 326 324 323 335 343 347 345 343
305 304 310 310 310 303 305 305 307 307 307 307 307 306 306 306 306 307 311 311 313 314 313 314 317 323 321 326 330 325 328 324 322 318 323 323 324 322 322 322 323 333 345 345 346
304 305 309 309 306 304 307 308 309 307 306 307 306 306 307 307 309 310 311 313 311 313 314 315 320 323 322 322 324 330 321 321 324 320 318 320 325 326 324 323 324 324 340 344 348
304 302 309 308 306 306 307 308 310 310 308 307 306 306 306 308 310 312 311 311 311 312 315 315 322 321 323 320 321 322 329 319 316 316 319 323 325 322 322 324 326 326 330 347 349
302 305 304 303 304 307 307 309 310 310 310 309 307 306 308 306 308 310 311 311 310 310 313 313 316 319 322 324 321 322 323 322 321 322 321 322 323 324 324 325 326 325 329 341 348
301 304 305 306 306 306 306 308 310 311 310 309 309 308 308 308 307 309 309 309 308 310 312 311 315 313 314 316 319 323 327 325 321 321 323 322 324 323 322 328 327 328 330 339 348
304 305 305 306 307 307 307 308 310 311 311 311 310 310 310 305 307 307 307 307 309 310 310 310 313 312 313 322 326 329 330 329 324 322 323 321 323 322 326 331 333 332 333 342 347
306 305 305 308 307 308 309 310 310 308 310 310 309 310 309 308 305 306 306 306 308 311 311 310 310 311 317 325 330 332 330 331 325 323 323 324 322 329 335 331 330 333 335 335 341
Wind_Speed
27 28 31 32 30 28 28 28 29 26 22 22 22 20 18 16 18 12 11 22 27 13 10 21 17 14 13 4 6 2 1 3 3 9 6 7 7 7 7 15 4 8 10 26 37
31 32 34 33 33 33 32 30 27 25 22 23 22 20 16 13 15 16 41 33 25 20 16 20 11 12 4 5 6 6 4 7 8 7 8 13 8 10 8 10 12 18 21 34 32
34 35 36 36 37 36 35 33 29 26 25 25 21 16 13 7 5 10 3 13 33 25 25 22 17 8 6 5 9 8 8 10 9 5 2 2 6 6 16 7 15 26 26 29 27
36 36 38 39 40 39 37 34 31 29 27 24 19 13 5 0 5 3 4 5 20 33 25 10 5 7 7 9 11 6 13 14 15 5 3 7 5 13 11 8 18 25 32 30 23
36 37 39 39 39 39 38 36 32 32 34 24 13 6 2 2 12 10 4 7 26 29 27 14 10 8 9 11 15 15 19 14 17 9 3 9 7 3 4 20 20 22 25 23 20
36 37 40 39 39 38 36 34 36 38 33 19 4 4 3 6 10 8 14 8 31 30 23 16 10 11 4 12 14 7 19 22 16 6 2 3 5 5 16 25 23 25 24 19 20
38 39 42 43 41 38 34 34 36 41 27 13 6 7 5 18 5 3 7 13 25 40 14 27 22 10 9 3 22 20 18 15 11 15 10 6 4 9 15 14 23 21 20 20 16
42 43 44 45 44 41 33 34 32 28 16 2 8 8 9 15 16 20 21 18 19 37 26 31 27 5 3 7 7 9 8 11 9 16 8 11 7 16 22 25 24 24 20 19 18
43 45 46 47 44 41 33 34 27 16 9 6 8 6 10 16 3 17 22 10 23 23 26 17 11 7 3 4 5 5 9 6 5 19 10 4 11 15 18 23 26 23 22 21 18
43 46 47 47 44 37 29 25 27 7 4 2 3 4 7 3 15 30 14 18 7 11 3 9 5 6 7 5 12 6 5 6 10 14 10 12 14 23 23 22 23 22 22 23 25
45 47 51 48 44 28 28 14 9 6 2 8 15 13 26 26 30 11 15 16 6 6 9 9 11 18 24 16 5 5 7 10 7 9 22 18 20 26 24 18 21 20 22 22 24
45 47 49 50 41 14 19 4 8 14 13 13 14 13 29 16 9 16 14 10 9 17 10 4 20 19 8 10 11 15 10 13 15 15 7 23 22 23 22 22 25 22 21 22 20
48 50 51 47 27 14 21 12 29 29 1 10 5 3 7 5 4 13 3 7 5 8 16 20 7 18 15 16 16 16 15 14 9 8 6 22 12 17 10 9 13 13 20 23 26
50 52 54 40 5 22 12 26 33 22 4 7 6 5 16 3 3 20 4 7 6 15 12 16 21 18 20 21 20 18 19 18 14 8 7 8 8 17 19 20 14 19 21 19 19
51 51 49 11 10 8 18 30 37 3 3 5 7 7 11 8 9 16 24 9 19 11 10 22 21 24 22 27 19 19 10 15 17 6 1 13 5 8 20 21 18 23 24 21 19
52 51 32 6 10 13 22 34 7 5 5 5 6 16 21 18 16 15 15 11 15 18 20 16 13 21 25 18 19 13 11 10 11 4 9 20 7 7 19 30 28 28 26 25 15
52 50 18 9 5 17 26 10 5 3 10 9 8 14 8 17 13 17 16 14 7 10 18 20 24 23 14 19 13 16 7 8 5 7 9 12 5 8 31 33 33 33 29 28 20
54 42 14 10 14 20 13 5 3 9 3 5 10 9 10 20 8 17 14 12 14 16 7 16 19 25 17 15 18 12 16 6 10 5 11 6 8 7 26 35 33 31 32 32 21
53 36 9 13 20 17 5 3 4 6 6 7 7 5 6 14 10 9 10 1 11 20 13 9 20 8 26 21 18 14 17 10 5 1 3 5 5 5 8 14 25 27 23 22 21
36 15 10 32 26 4 4 5 3 8 6 5 5 5 7 10 7 13 6 5 14 17 16 5 9 15 27 16 22 23 8 10 4 11 5 6 6 9 8 10 18 22 28 30 25
12 4 7 35 19 5 2 4 5 10 6 4 3 3 3 5 4 7 6 13 13 18 16 11 5 11 2 15 27 5 18 7 6 6 8 4 9 7 10 11 11 17 27 28 25
8 4 16 33 4 3 3 7 9 9 5 4 2 3 3 5 4 3 7 4 8 10 14 9 5 6 13 13 2 25 7 12 9 10 4 4 13 5 11 12 15 14 26 27 27
5 3 11 15 4 4 6 7 5 10 8 3 1 2 4 3 3 2 4 7 7 5 5 8 3 8 8 4 3 5 13 9 6 7 10 11 10 4 8 8 15 23 20 27 31
2 4 4 4 2 1 5 6 9 11 4 5 4 3 3 3 5 3 6 5 8 9 6 10 4 10 8 6 10 4 11 8 16 9 10 11 12 8 14 15 10 13 16 29 29
1 2 2 4 5 9 8 6 11 7 3 6 4 3 3 5 3 4 7 9 6 3 3 2 7 7 17 26 24 23 12 13 12 12 13 11 8 9 10 11 7 8 12 21 27
1 1 1 4 6 7 5 4 10 7 6 10 5 13 11 6 7 12 13 7 3 3 1 4 5 11 17 16 17 17 7 7 15 11 6 7 8 9 5 9 4 8 15 19 26
3 1 2 3 2 2 3 4 10 15 9 11 12 14 12 11 10 12 14 12 7 6 4 4 3 6 6 9 6 4 8 1 8 10 11 7 9 2 2 8 10 7 11 11 10
Wind_Direction
1 358 357 354 351 346 342 340 336 330 326 324 321 314 310 306 305 289 234 230 223 143 135 165 186 182 183 217 236 262 67 233 218 188 120 12 194 165 112 136 176 181 137 148 160
2 0 358 354 351 348 344 339 337 335 336 333 324 315 310 313 302 247 256 248 220 200 168 166 185 185 178 197 198 200 198 229 203 206 171 170 186 139 134 136 101 99 117 147 156
2 0 358 355 352 349 345 342 340 339 336 335 330 319 310 326 285 246 41 235 226 195 176 176 175 173 192 230 212 204 233 235 251 216 149 173 140 172 136 153 162 146 144 155 160
1 359 356 354 353 349 346 344 341 339 336 333 326 323 322 231 252 246 92 21 199 193 182 189 187 175 171 211 217 260 239 239 262 225 191 159 113 137 186 163 162 152 151 155 162
360 358 356 354 352 348 344 342 339 336 332 322 316 310 115 246 250 212 235 327 170 172 179 180 181 169 197 204 239 236 249 253 245 232 222 108 60 332 164 131 142 144 155 157 162
359 357 356 353 352 348 341 337 336 336 332 313 271 220 168 246 261 279 249 187 170 174 185 185 194 202 228 234 204 231 236 252 263 188 68 106 66 67 134 137 147 152 163 165 172
359 357 355 353 351 348 339 335 337 333 327 297 195 192 225 240 225 86 203 198 184 182 174 198 212 181 192 259 235 249 264 264 252 154 175 137 68 104 135 140 150 160 166 170 177
359 357 354 351 349 346 338 338 340 339 348 175 174 187 251 261 296 273 244 246 218 198 188 192 205 214 193 309 317 227 241 253 245 180 160 159 177 147 164 156 170 167 173 178 184
358 355 352 349 347 346 341 342 341 330 3 106 134 195 262 315 261 325 230 209 190 197 202 176 181 206 278 220 308 243 241 223 221 183 153 186 125 165 178 176 165 172 177 181 189
357 354 350 348 346 347 347 354 350 331 18 240 279 290 272 1 341 316 251 196 167 170 161 200 188 168 221 161 215 220 195 227 230 194 159 186 150 173 191 183 179 178 184 186 187
355 352 350 346 344 349 353 1 14 342 180 232 257 265 288 303 313 299 328 177 175 162 177 195 193 206 213 210 233 250 216 251 264 203 195 191 170 183 178 190 178 184 191 193 196
354 350 347 342 341 351 360 51 342 306 300 302 259 247 251 269 303 300 336 182 171 209 179 158 218 217 192 210 210 236 242 253 268 269 171 189 183 182 176 190 180 179 188 193 191
352 349 346 341 344 351 343 346 340 334 311 301 255 246 269 134 241 289 302 319 212 214 203 209 233 210 201 224 220 222 227 243 233 286 304 160 166 159 197 212 209 213 205 185 182
350 347 346 346 22 339 322 335 338 331 32 279 355 16 1 284 260 343 275 178 257 222 220 226 237 198 212 220 209 221 225 240 248 247 253 186 168 196 179 212 215 211 224 200 191
348 346 344 4 319 307 319 331 328 76 327 61 14 46 339 45 302 354 15 334 224 251 181 223 200 220 216 218 205 224 218 233 241 229 260 258 117 207 184 200 216 222 222 212 200
346 345 341 350 308 316 333 328 347 52 268 329 43 356 2 17 350 353 7 12 293 223 261 233 242 210 228 227 222 206 213 248 241 186 242 253 158 181 185 206 209 220 219 214 208
342 343 334 306 275 312 325 343 44 114 342 360 357 7 20 352 343 15 5 14 11 327 235 232 236 237 223 220 223 218 153 223 256 226 230 243 183 217 200 209 204 206 210 212 217
341 344 341 290 290 303 348 39 78 348 33 325 353 19 23 3 347 348 1 358 30 9 313 216 234 217 217 214 206 214 207 163 209 196 229 163 211 249 194 206 216 206 200 201 201
340 347 344 352 328 294 64 10 221 343 322 350 1 26 16 356 330 352 357 163 41 33 10 331 234 248 222 218 195 203 213 184 143 244 150 225 230 284 203 191 205 207 207 218 210
338 325 310 350 345 189 87 233 268 311 347 42 50 46 340 349 11 349 339 317 352 23 359 304 292 236 231 213 223 210 166 188 177 223 236 276 219 214 225 208 206 198 196 209 202
346 352 329 342 337 59 178 258 326 351 43 59 51 347 304 318 358 316 294 337 358 342 345 317 259 299 267 215 215 195 207 198 158 157 216 224 255 191 223 227 186 195 194 200 197
351 343 336 343 46 25 34 326 316 6 11 40 57 21 325 305 283 324 297 275 329 7 331 319 285 283 240 237 269 214 192 197 203 213 208 179 254 213 218 223 231 210 196 195 194
321 270 332 11 47 351 317 312 314 358 344 51 335 98 206 238 258 184 265 296 304 23 12 348 344 314 305 21 276 208 218 208 159 140 205 211 245 233 251 241 233 218 177 190 191
341 345 330 17 84 44 332 289 327 333 289 12 272 307 311 295 216 246 265 307 360 317 0 5 261 254 278 296 329 257 226 203 192 197 192 214 257 294 287 295 282 183 163 179 185
343 287 178 308 335 325 294 266 300 325 358 349 332 300 297 270 270 239 295 267 358 337 84 355 269 263 268 277 272 260 257 208 195 186 195 212 205 245 263 270 233 154 138 164 176
264 349 355 276 270 295 292 292 308 326 346 311 282 317 310 231 224 276 260 266 157 176 339 232 267 305 290 257 220 239 249 260 209 180 179 167 225 227 263 289 96 132 143 165 176
269 199 158 228 267 265 255 294 296 310 287 268 315 306 287 276 261 265 246 253 192 165 197 202 256 346 269 320 186 78 342 336 203 184 183 183 226 186 107 358 9 90 99 111 158